| time (UTC) | temp F | wind direction | speed MPH | gust MPH | rain 1hr in | rain 24hr in | rain mn in | humidity % | barometer mb |
| 20260905232920 | 94 | 281 | 6.0 | 13.0 | 0.00 | 0.00 | 0.00 | 33 | 1007.9 |
| 20260905231830 | 94 | 272 | 7.0 | 16.0 | 0.00 | 0.00 | 0.00 | 33 | 1007.9 |
| 20260905231331 | 94 | 283 | 9.0 | 17.0 | 0.00 | 0.00 | 0.00 | 32 | 1007.9 |
| 20260905230830 | 94 | 252 | 8.0 | 17.0 | 0.00 | 0.00 | 0.00 | 33 | 1008.1 |
| 20260905230330 | 94 | 274 | 7.0 | 15.0 | 0.00 | 0.00 | 0.00 | 32 | 1007.9 |
| 20260905230323 | 94 | 292 | 10.0 | 16.0 | 0.00 | 0.00 | 0.00 | 32 | 1007.9 |
| 20260905225330 | 94 | 213 | 9.0 | 19.0 | 0.00 | 0.00 | 0.00 | 32 | 1008.1 |
| 20260905224830 | 94 | 278 | 12.0 | 20.0 | 0.00 | 0.00 | 0.00 | 32 | 1008.1 |
| 20260905224329 | 95 | 286 | 9.0 | 20.0 | 0.00 | 0.00 | 0.00 | 31 | 1008.1 |
| 20260905223829 | 95 | 243 | 6.0 | 15.0 | 0.00 | 0.00 | 0.00 | 32 | 1008.1 |
| 20260905223329 | 94 | 296 | 6.0 | 18.0 | 0.00 | 0.00 | 0.00 | 33 | 1008.1 |
| 20260905222828 | 95 | 313 | 6.0 | 18.0 | 0.00 | 0.00 | 0.00 | 32 | 1008.1 |
| 20260905222329 | 95 | 302 | 9.0 | 18.0 | 0.00 | 0.00 | 0.00 | 32 | 1008.2 |
| 20260905221829 | 95 | 285 | 10.0 | 18.0 | 0.00 | 0.00 | 0.00 | 31 | 1008.2 |
| 20260905221328 | 95 | 276 | 8.0 | 15.0 | 0.00 | 0.00 | 0.00 | 32 | 1008.3 |
| 20260905220829 | 95 | 290 | 4.0 | 13.0 | 0.00 | 0.00 | 0.00 | 33 | 1008.3 |
| 20260905220329 | 95 | 259 | 7.0 | 13.0 | 0.00 | 0.00 | 0.00 | 33 | 1008.4 |
| 20260905220049 | 95 | 271 | 5.0 | 13.0 | 0.00 | 0.00 | 0.00 | 32 | 1008.5 |
| 20260905215328 | 95 | 213 | 4.0 | 14.0 | 0.00 | 0.00 | 0.00 | 33 | 1008.5 |
| 20260905214828 | 95 | 275 | 5.0 | 15.0 | 0.00 | 0.00 | 0.00 | 33 | 1008.7 |
| 20260905214549 | 95 | 305 | 9.0 | 15.0 | 0.00 | 0.00 | 0.00 | 33 | 1008.7 |
| 20260905213828 | 95 | 307 | 6.0 | 15.0 | 0.00 | 0.00 | 0.00 | 33 | 1008.8 |
| 20260905213328 | 96 | 281 | 6.0 | 14.0 | 0.00 | 0.00 | 0.00 | 32 | 1008.9 |
| 20260905212828 | 96 | 123 | 2.0 | 14.0 | 0.00 | 0.00 | 0.00 | 33 | 1008.9 |
| 20260905212327 | 95 | 269 | 4.0 | 11.0 | 0.00 | 0.00 | 0.00 | 33 | 1008.9 |
| 20260905212027 | 95 | 210 | 7.0 | 13.0 | 0.00 | 0.00 | 0.00 | 33 | 1009.1 |
| 20260905211918 | 95 | 189 | 4.0 | 13.0 | 0.00 | 0.00 | 0.00 | 33 | 1009.0 |
| 20260905210827 | 95 | 248 | 4.0 | 13.0 | 0.00 | 0.00 | 0.00 | 33 | 1009.1 |
| 20260905210327 | 95 | 303 | 5.0 | 13.0 | 0.00 | 0.00 | 0.00 | 32 | 1009.2 |
| 20260905205827 | 95 | 268 | 4.0 | 12.0 | 0.00 | 0.00 | 0.00 | 33 | 1009.4 |
| 20260905205327 | 95 | 220 | 5.0 | 12.0 | 0.00 | 0.00 | 0.00 | 33 | 1009.5 |
| 20260905204827 | 95 | 292 | 4.0 | 12.0 | 0.00 | 0.00 | 0.00 | 33 | 1009.5 |
| 20260905204326 | 95 | 281 | 2.0 | 13.0 | 0.00 | 0.00 | 0.00 | 34 | 1009.5 |
| 20260905203827 | 94 | 292 | 6.0 | 13.0 | 0.00 | 0.00 | 0.00 | 35 | 1009.7 |
| 20260905203326 | 95 | 258 | 6.0 | 11.0 | 0.00 | 0.00 | 0.00 | 34 | 1009.7 |
| 20260905202826 | 95 | 266 | 6.0 | 11.0 | 0.00 | 0.00 | 0.00 | 34 | 1009.8 |
| 20260905202326 | 95 | 288 | 2.0 | 11.0 | 0.00 | 0.00 | 0.00 | 34 | 1010.0 |
| 20260905201825 | 96 | 283 | 6.0 | 13.0 | 0.00 | 0.00 | 0.00 | 34 | 1010.0 |
| 20260905201325 | 95 | 202 | 4.0 | 13.0 | 0.00 | 0.00 | 0.00 | 35 | 1010.1 |
| 20260905200826 | 95 | 250 | 6.0 | 12.0 | 0.00 | 0.00 | 0.00 | 35 | 1010.1 |
| 20260905200326 | 94 | 192 | 6.0 | 12.0 | 0.00 | 0.00 | 0.00 | 34 | 1010.2 |
| 20260905195825 | 95 | 290 | 3.0 | 12.0 | 0.00 | 0.00 | 0.00 | 35 | 1010.2 |
| 20260905195326 | 94 | 259 | 3.0 | 12.0 | 0.00 | 0.00 | 0.00 | 36 | 1010.3 |
| 20260905194825 | 95 | 285 | 8.0 | 12.0 | 0.00 | 0.00 | 0.00 | 34 | 1010.4 |
| 20260905194325 | 97 | 336 | 0.0 | 9.0 | 0.00 | 0.00 | 0.00 | 33 | 1010.4 |
| 20260905193825 | 96 | 206 | 1.0 | 10.0 | 0.00 | 0.00 | 0.00 | 33 | 1010.4 |
| 20260905193325 | 95 | 221 | 5.0 | 10.0 | 0.00 | 0.00 | 0.00 | 34 | 1010.5 |
| 20260905192825 | 95 | 152 | 3.0 | 9.0 | 0.00 | 0.00 | 0.00 | 35 | 1010.5 |
| 20260905192325 | 94 | 258 | 4.0 | 9.0 | 0.00 | 0.00 | 0.00 | 35 | 1010.8 |
| 20260905191825 | 94 | 251 | 2.0 | 6.0 | 0.00 | 0.00 | 0.00 | 37 | 1010.8 |
| 20260905191324 | 93 | 262 | 3.0 | 9.0 | 0.00 | 0.00 | 0.00 | 37 | 1010.8 |
| 20260905190824 | 93 | 271 | 2.0 | 9.0 | 0.00 | 0.00 | 0.00 | 37 | 1010.9 |
| 20260905190324 | 92 | 62 | 1.0 | 9.0 | 0.00 | 0.00 | 0.00 | 37 | 1011.0 |
| 20260905185824 | 92 | 293 | 0.0 | 11.0 | 0.00 | 0.00 | 0.00 | 38 | 1011.1 |
| 20260905185324 | 93 | 282 | 4.0 | 11.0 | 0.00 | 0.00 | 0.00 | 38 | 1011.3 |
| 20260905184824 | 92 | 243 | 3.0 | 6.0 | 0.00 | 0.00 | 0.00 | 39 | 1011.3 |
| 20260905184323 | 92 | 244 | 0.0 | 6.0 | 0.00 | 0.00 | 0.00 | 40 | 1011.5 |
| 20260905183823 | 92 | 264 | 3.0 | 6.0 | 0.00 | 0.00 | 0.00 | 39 | 1011.6 |
| 20260905183540 | 91 | 293 | 0.0 | 6.0 | 0.00 | 0.00 | 0.00 | 40 | 1011.5 |
| 20260905182823 | 91 | 250 | 3.0 | 6.0 | 0.00 | 0.00 | 0.00 | 40 | 1011.5 |
| 20260905182323 | 92 | 261 | 3.0 | 6.0 | 0.00 | 0.00 | 0.00 | 39 | 1011.6 |
| 20260905182047 | 91 | 230 | 1.0 | 6.0 | 0.00 | 0.00 | 0.00 | 40 | 1011.7 |
| 20260905181544 | 91 | 340 | 0.0 | 6.0 | 0.00 | 0.00 | 0.00 | 39 | 1011.7 |
| 20260905180823 | 91 | 278 | 2.0 | 7.0 | 0.00 | 0.00 | 0.00 | 39 | 1011.8 |
| 20260905180322 | 91 | 292 | 3.0 | 7.0 | 0.00 | 0.00 | 0.00 | 40 | 1011.6 |
| 20260905180041 | 92 | 276 | 0.0 | 5.0 | 0.00 | 0.00 | 0.00 | 40 | 1011.6 |
| 20260905175322 | 92 | 252 | 2.0 | 5.0 | 0.00 | 0.00 | 0.00 | 40 | 1011.7 |
| 20260905174822 | 91 | 224 | 1.0 | 4.0 | 0.00 | 0.00 | 0.00 | 41 | 1011.7 |
| 20260905174322 | 90 | 292 | 1.0 | 3.0 | 0.00 | 0.00 | 0.00 | 41 | 1011.8 |
| 20260905174044 | 90 | 293 | 1.0 | 4.0 | 0.00 | 0.00 | 0.00 | 40 | 1012.0 |
| 20260905173322 | 89 | 207 | 0.0 | 4.0 | 0.00 | 0.00 | 0.00 | 41 | 1011.8 |
| 20260905172821 | 89 | 259 | 2.0 | 5.0 | 0.00 | 0.00 | 0.00 | 43 | 1012.0 |
| 20260905172322 | 88 | 0 | 0.0 | 5.0 | 0.00 | 0.00 | 0.00 | 42 | 1012.0 |
| 20260905172042 | 88 | 316 | 3.0 | 5.0 | 0.00 | 0.00 | 0.00 | 44 | 1011.8 |
| 20260905171322 | 88 | 313 | 1.0 | 6.0 | 0.00 | 0.00 | 0.00 | 45 | 1012.1 |
| 20260905170821 | 87 | 285 | 2.0 | 6.0 | 0.00 | 0.00 | 0.00 | 46 | 1012.1 |
| 20260905170322 | 88 | 298 | 2.0 | 5.0 | 0.00 | 0.00 | 0.00 | 45 | 1012.2 |
| 20260905170044 | 88 | 293 | 0.0 | 4.0 | 0.00 | 0.00 | 0.00 | 46 | 1012.1 |
| 20260905165538 | 89 | 0 | 0.0 | 1.0 | 0.00 | 0.00 | 0.00 | 45 | 1012.1 |
| 20260905164821 | 89 | 250 | 0.0 | 3.0 | 0.00 | 0.00 | 0.00 | 45 | 1012.2 |
| 20260905164322 | 88 | 240 | 0.0 | 3.0 | 0.00 | 0.00 | 0.00 | 48 | 1012.2 |
| 20260905163821 | 88 | 272 | 0.0 | 3.0 | 0.00 | 0.00 | 0.00 | 47 | 1012.2 |
| 20260905163320 | 87 | 283 | 0.0 | 4.0 | 0.00 | 0.00 | 0.00 | 49 | 1012.2 |
| 20260905162821 | 87 | 262 | 1.0 | 4.0 | 0.00 | 0.00 | 0.00 | 48 | 1012.2 |
| 20260905162320 | 87 | 234 | 0.0 | 2.0 | 0.00 | 0.00 | 0.00 | 47 | 1012.2 |
| 20260905161821 | 88 | 243 | 0.0 | 2.0 | 0.00 | 0.00 | 0.00 | 47 | 1012.2 |
| 20260905161320 | 88 | 152 | 0.0 | 3.0 | 0.00 | 0.00 | 0.00 | 45 | 1012.2 |
| 20260905160820 | 87 | 209 | 2.0 | 3.0 | 0.00 | 0.00 | 0.00 | 47 | 1012.2 |
| 20260905160319 | 87 | 226 | 0.0 | 2.0 | 0.00 | 0.00 | 0.00 | 48 | 1012.2 |
| 20260905155820 | 86 | 149 | 0.0 | 0.0 | 0.00 | 0.00 | 0.00 | 50 | 1012.1 |
| 20260905155526 | 85 | 203 | 0.0 | 2.0 | 0.00 | 0.00 | 0.00 | 52 | 1012.1 |
| 20260905155413 | 86 | 152 | 0.0 | 2.0 | 0.00 | 0.00 | 0.00 | 51 | 1012.2 |
| 20260905154319 | 84 | 231 | 0.0 | 2.0 | 0.00 | 0.00 | 0.00 | 54 | 1012.1 |
| 20260905153819 | 83 | 234 | 0.0 | 2.0 | 0.00 | 0.00 | 0.00 | 56 | 1012.1 |
| 20260905153320 | 82 | 275 | 0.0 | 2.0 | 0.00 | 0.00 | 0.00 | 58 | 1012.2 |
| 20260905152819 | 82 | 334 | 0.0 | 2.0 | 0.00 | 0.00 | 0.00 | 59 | 1012.1 |
| 20260905152319 | 82 | 285 | 0.0 | 2.0 | 0.00 | 0.00 | 0.00 | 58 | 1012.2 |
| 20260905151819 | 82 | 275 | 0.0 | 1.0 | 0.00 | 0.00 | 0.00 | 60 | 1012.1 |
| 20260905151319 | 82 | 275 | 0.0 | 1.0 | 0.00 | 0.00 | 0.00 | 59 | 1012.1 |
| 20260905150818 | 82 | 275 | 0.0 | 2.0 | 0.00 | 0.00 | 0.00 | 57 | 1012.1 |
| 20260905150319 | 84 | 275 | 0.0 | 2.0 | 0.00 | 0.00 | 0.00 | 55 | 1012.1 |
| 20260905145819 | 85 | 147 | 0.0 | 0.0 | 0.00 | 0.00 | 0.00 | 55 | 1012.1 |
| 20260905145319 | 82 | 147 | 0.0 | 0.0 | 0.00 | 0.00 | 0.00 | 58 | 1012.1 |
| 20260905144818 | 81 | 147 | 0.0 | 0.0 | 0.00 | 0.00 | 0.00 | 59 | 1012.2 |
| 20260905144318 | 80 | 147 | 0.0 | 0.0 | 0.00 | 0.00 | 0.00 | 60 | 1012.1 |
| 20260905143818 | 80 | 147 | 0.0 | 0.0 | 0.00 | 0.00 | 0.00 | 60 | 1012.2 |
| 20260905143317 | 80 | 145 | 0.0 | 0.0 | 0.00 | 0.00 | 0.00 | 62 | 1012.1 |
| 20260905142818 | 79 | 147 | 0.0 | 0.0 | 0.00 | 0.00 | 0.00 | 65 | 1012.1 |
| 20260905142317 | 78 | 147 | 0.0 | 0.0 | 0.00 | 0.00 | 0.00 | 67 | 1012.0 |
| 20260905141818 | 77 | 151 | 0.0 | 0.0 | 0.00 | 0.00 | 0.00 | 66 | 1012.0 |
| 20260905141804 | 77 | 151 | 0.0 | 0.0 | 0.00 | 0.00 | 0.00 | 68 | 1011.8 |
| 20260905141044 | 76 | 152 | 0.0 | 0.0 | 0.00 | 0.00 | 0.00 | 70 | 1011.8 |
| 20260905140541 | 76 | 151 | 0.0 | 0.0 | 0.00 | 0.00 | 0.00 | 70 | 1011.7 |
| 20260905135817 | 76 | 152 | 0.0 | 0.0 | 0.00 | 0.00 | 0.00 | 71 | 1011.6 |
| 20260905135317 | 75 | 23 | 0.0 | 0.0 | 0.00 | 0.00 | 0.00 | 72 | 1011.5 |
| 20260905134816 | 75 | 23 | 0.0 | 0.0 | 0.00 | 0.00 | 0.00 | 73 | 1011.5 |
| 20260905134316 | 75 | 23 | 0.0 | 0.0 | 0.00 | 0.00 | 0.00 | 72 | 1011.4 |
| 20260905133816 | 74 | 23 | 0.0 | 0.0 | 0.00 | 0.00 | 0.00 | 72 | 1011.3 |
| 20260905133316 | 74 | 24 | 0.0 | 0.0 | 0.00 | 0.00 | 0.00 | 73 | 1011.2 |
| 20260905133035 | 73 | 24 | 0.0 | 0.0 | 0.00 | 0.00 | 0.00 | 74 | 1011.1 |
| 20260905132541 | 73 | 24 | 0.0 | 0.0 | 0.00 | 0.00 | 0.00 | 75 | 1011.1 |
| 20260905131817 | 73 | 24 | 0.0 | 0.0 | 0.00 | 0.00 | 0.00 | 75 | 1010.9 |
| 20260905131316 | 73 | 24 | 0.0 | 1.0 | 0.00 | 0.00 | 0.00 | 74 | 1010.9 |
| 20260905131044 | 73 | 35 | 0.0 | 2.0 | 0.00 | 0.00 | 0.00 | 75 | 1010.9 |
| 20260905130538 | 72 | 37 | 0.0 | 2.0 | 0.00 | 0.00 | 0.00 | 77 | 1010.8 |
| 20260905125816 | 72 | 24 | 0.0 | 0.0 | 0.00 | 0.00 | 0.00 | 78 | 1010.8 |
| 20260905125535 | 72 | 24 | 0.0 | 0.0 | 0.00 | 0.00 | 0.00 | 77 | 1010.8 |
| 20260905124815 | 72 | 24 | 0.0 | 0.0 | 0.00 | 0.00 | 0.00 | 76 | 1010.9 |
| 20260905124315 | 72 | 24 | 0.0 | 0.0 | 0.00 | 0.00 | 0.00 | 76 | 1010.8 |
| 20260905124042 | 72 | 24 | 0.0 | 0.0 | 0.00 | 0.00 | 0.00 | 76 | 1010.7 |
| 20260905123538 | 72 | 24 | 0.0 | 0.0 | 0.00 | 0.00 | 0.00 | 76 | 1010.7 |
| 20260905122815 | 73 | 24 | 0.0 | 0.0 | 0.00 | 0.00 | 0.00 | 75 | 1010.8 |
| 20260905122315 | 73 | 24 | 0.0 | 0.0 | 0.00 | 0.00 | 0.00 | 74 | 1010.8 |
| 20260905121814 | 73 | 24 | 0.0 | 0.0 | 0.00 | 0.00 | 0.00 | 73 | 1010.7 |
| 20260905121314 | 74 | 24 | 0.0 | 0.0 | 0.00 | 0.00 | 0.00 | 72 | 1010.7 |
| 20260905120815 | 74 | 25 | 0.0 | 0.0 | 0.00 | 0.00 | 0.00 | 72 | 1010.7 |
| 20260905120315 | 74 | 27 | 0.0 | 0.0 | 0.00 | 0.00 | 0.00 | 72 | 1010.7 |
| 20260905115814 | 73 | 27 | 0.0 | 0.0 | 0.00 | 0.00 | 0.00 | 72 | 1010.7 |
| 20260905115314 | 73 | 27 | 0.0 | 0.0 | 0.00 | 0.00 | 0.00 | 72 | 1010.5 |
| 20260905114814 | 74 | 27 | 0.0 | 0.0 | 0.00 | 0.00 | 0.00 | 72 | 1010.4 |
| 20260905114313 | 74 | 27 | 0.0 | 0.0 | 0.00 | 0.00 | 0.00 | 70 | 1010.5 |
| 20260905113814 | 74 | 27 | 0.0 | 0.0 | 0.00 | 0.00 | 0.00 | 70 | 1010.4 |
| 20260905113534 | 74 | 27 | 0.0 | 0.0 | 0.00 | 0.00 | 0.00 | 70 | 1010.4 |
| 20260905112814 | 74 | 14 | 0.0 | 0.0 | 0.00 | 0.00 | 0.00 | 71 | 1010.5 |
| 20260905112532 | 74 | 14 | 0.0 | 1.0 | 0.00 | 0.00 | 0.00 | 71 | 1010.5 |
| 20260905111813 | 74 | 45 | 0.0 | 1.0 | 0.00 | 0.00 | 0.00 | 72 | 1010.5 |
| 20260905111313 | 73 | 87 | 0.0 | 0.0 | 0.00 | 0.00 | 0.00 | 73 | 1010.7 |
| 20260905110813 | 73 | 87 | 0.0 | 0.0 | 0.00 | 0.00 | 0.00 | 74 | 1010.5 |
| 20260905110534 | 73 | 87 | 0.0 | 0.0 | 0.00 | 0.00 | 0.00 | 74 | 1010.5 |
| 20260905105813 | 73 | 87 | 0.0 | 0.0 | 0.00 | 0.00 | 0.00 | 75 | 1010.5 |
| 20260905105313 | 73 | 87 | 0.0 | 0.0 | 0.00 | 0.00 | 0.00 | 75 | 1010.4 |
| 20260905105035 | 73 | 87 | 0.0 | 0.0 | 0.00 | 0.00 | 0.00 | 75 | 1010.4 |
| 20260905104312 | 74 | 87 | 0.0 | 0.0 | 0.00 | 0.00 | 0.00 | 74 | 1010.4 |
| 20260905103812 | 74 | 87 | 0.0 | 0.0 | 0.00 | 0.00 | 0.00 | 72 | 1010.4 |
| 20260905103312 | 74 | 87 | 0.0 | 0.0 | 0.00 | 0.00 | 0.00 | 72 | 1010.4 |
| 20260905103031 | 74 | 87 | 0.0 | 0.0 | 0.00 | 0.00 | 0.00 | 72 | 1010.5 |
| 20260905102312 | 74 | 87 | 0.0 | 0.0 | 0.00 | 0.00 | 0.00 | 72 | 1010.5 |
| 20260905101812 | 74 | 87 | 0.0 | 0.0 | 0.00 | 0.00 | 0.00 | 73 | 1010.7 |
| 20260905101532 | 74 | 87 | 0.0 | 0.0 | 0.00 | 0.00 | 0.00 | 73 | 1010.7 |
| 20260905100811 | 74 | 87 | 0.0 | 0.0 | 0.00 | 0.00 | 0.00 | 73 | 1010.5 |
| 20260905100312 | 74 | 87 | 0.0 | 0.0 | 0.00 | 0.00 | 0.00 | 73 | 1010.7 |
| 20260905095812 | 74 | 87 | 0.0 | 0.0 | 0.00 | 0.00 | 0.00 | 73 | 1010.7 |
| 20260905095311 | 74 | 87 | 0.0 | 0.0 | 0.00 | 0.00 | 0.00 | 72 | 1010.7 |
| 20260905094811 | 74 | 87 | 0.0 | 0.0 | 0.00 | 0.00 | 0.00 | 72 | 1010.7 |
| 20260905094534 | 74 | 87 | 0.0 | 0.0 | 0.00 | 0.00 | 0.00 | 72 | 1010.5 |
| 20260905093811 | 74 | 87 | 0.0 | 0.0 | 0.00 | 0.00 | 0.00 | 73 | 1010.7 |
| 20260905093311 | 74 | 87 | 0.0 | 0.0 | 0.00 | 0.00 | 0.00 | 73 | 1010.5 |
| 20260905092810 | 74 | 87 | 0.0 | 0.0 | 0.00 | 0.00 | 0.00 | 72 | 1010.7 |
| 20260905092311 | 75 | 87 | 0.0 | 0.0 | 0.00 | 0.00 | 0.00 | 70 | 1010.5 |
| 20260905091811 | 75 | 89 | 0.0 | 0.0 | 0.00 | 0.00 | 0.00 | 70 | 1010.7 |
| 20260905091310 | 75 | 89 | 0.0 | 0.0 | 0.00 | 0.00 | 0.00 | 69 | 1010.5 |
| 20260905090810 | 75 | 87 | 0.0 | 0.0 | 0.00 | 0.00 | 0.00 | 69 | 1010.5 |
| 20260905090310 | 76 | 87 | 0.0 | 0.0 | 0.00 | 0.00 | 0.00 | 69 | 1010.5 |
| 20260905090038 | 75 | 87 | 0.0 | 0.0 | 0.00 | 0.00 | 0.00 | 68 | 1010.5 |
| 20260905085310 | 75 | 87 | 0.0 | 0.0 | 0.00 | 0.00 | 0.00 | 68 | 1010.7 |
| 20260905084809 | 75 | 87 | 0.0 | 0.0 | 0.00 | 0.00 | 0.00 | 69 | 1010.7 |
| 20260905084310 | 75 | 87 | 0.0 | 0.0 | 0.00 | 0.00 | 0.00 | 69 | 1010.7 |
| 20260905083809 | 75 | 87 | 0.0 | 0.0 | 0.00 | 0.00 | 0.00 | 69 | 1010.7 |
| 20260905083310 | 75 | 87 | 0.0 | 0.0 | 0.00 | 0.00 | 0.00 | 70 | 1010.7 |
| 20260905082810 | 75 | 87 | 0.0 | 0.0 | 0.00 | 0.00 | 0.00 | 69 | 1010.7 |
| 20260905082533 | 75 | 87 | 0.0 | 0.0 | 0.00 | 0.00 | 0.00 | 70 | 1010.7 |
| 20260905081809 | 75 | 87 | 0.0 | 0.0 | 0.00 | 0.00 | 0.00 | 69 | 1010.8 |
| 20260905081309 | 75 | 87 | 0.0 | 0.0 | 0.00 | 0.00 | 0.00 | 70 | 1010.8 |
| 20260905080809 | 75 | 87 | 0.0 | 0.0 | 0.00 | 0.00 | 0.00 | 70 | 1010.8 |
| 20260905080309 | 76 | 87 | 0.0 | 0.0 | 0.00 | 0.00 | 0.00 | 68 | 1010.8 |
| 20260905075810 | 76 | 87 | 0.0 | 0.0 | 0.00 | 0.00 | 0.00 | 68 | 1010.8 |
| 20260905075309 | 76 | 87 | 0.0 | 0.0 | 0.00 | 0.00 | 0.00 | 67 | 1011.0 |
| 20260905074809 | 76 | 87 | 0.0 | 0.0 | 0.00 | 0.00 | 0.00 | 67 | 1010.9 |
| 20260905074308 | 77 | 87 | 0.0 | 0.0 | 0.00 | 0.00 | 0.00 | 65 | 1011.0 |
| 20260905074301 | 77 | 87 | 0.0 | 0.0 | 0.00 | 0.00 | 0.00 | 64 | 1010.9 |
| 20260905073309 | 78 | 89 | 0.0 | 0.0 | 0.00 | 0.00 | 0.00 | 63 | 1010.9 |
| 20260905072807 | 78 | 89 | 0.0 | 0.0 | 0.00 | 0.00 | 0.00 | 63 | 1010.9 |
| 20260905072308 | 78 | 89 | 0.0 | 0.0 | 0.00 | 0.00 | 0.00 | 62 | 1010.9 |
| 20260905071807 | 78 | 89 | 0.0 | 0.0 | 0.00 | 0.00 | 0.00 | 62 | 1010.8 |
| 20260905071308 | 78 | 49 | 0.0 | 0.0 | 0.00 | 0.00 | 0.00 | 63 | 1010.8 |
| 20260905070808 | 78 | 49 | 0.0 | 0.0 | 0.00 | 0.00 | 0.00 | 63 | 1010.8 |
| 20260905070307 | 78 | 49 | 0.0 | 0.0 | 0.00 | 0.00 | 0.00 | 62 | 1010.7 |
| 20260905065808 | 79 | 49 | 0.0 | 0.0 | 0.00 | 0.00 | 0.00 | 62 | 1010.9 |
| 20260905065307 | 79 | 49 | 0.0 | 0.0 | 0.00 | 0.00 | 0.00 | 62 | 1010.9 |
| 20260905065028 | 79 | 49 | 0.0 | 0.0 | 0.00 | 0.00 | 0.00 | 61 | 1010.9 |
| 20260905064307 | 79 | 49 | 0.0 | 1.0 | 0.00 | 0.00 | 0.00 | 60 | 1010.8 |
| 20260905063806 | 80 | 49 | 0.0 | 1.0 | 0.00 | 0.00 | 0.00 | 60 | 1010.9 |
| 20260905063307 | 80 | 35 | 0.0 | 1.0 | 0.00 | 0.00 | 0.00 | 60 | 1010.9 |
| 20260905062807 | 79 | 34 | 0.0 | 1.0 | 0.00 | 0.00 | 0.00 | 60 | 1010.8 |
| 20260905062307 | 79 | 69 | 0.0 | 0.0 | 0.00 | 0.00 | 0.00 | 61 | 1010.9 |
| 20260905061807 | 80 | 73 | 0.0 | 0.0 | 0.00 | 0.00 | 0.00 | 60 | 1010.8 |
| 20260905061531 | 80 | 103 | 0.0 | 0.0 | 0.00 | 0.00 | 0.00 | 58 | 1010.8 |
| 20260905060806 | 80 | 103 | 0.0 | 2.0 | 0.00 | 0.00 | 0.00 | 58 | 1010.8 |
| 20260905060755 | 80 | 104 | 0.0 | 2.0 | 0.00 | 0.00 | 0.00 | 58 | 1010.8 |
| 20260905055805 | 80 | 131 | 0.0 | 0.0 | 0.00 | 0.00 | 0.00 | 58 | 1010.8 |
| 20260905055306 | 80 | 131 | 0.0 | 0.0 | 0.00 | 0.00 | 0.00 | 58 | 1010.8 |
| 20260905054806 | 80 | 131 | 0.0 | 0.0 | 0.00 | 0.00 | 0.00 | 58 | 1010.8 |
| 20260905054305 | 80 | 131 | 0.0 | 0.0 | 0.00 | 0.00 | 0.00 | 57 | 1010.7 |
| 20260905053806 | 80 | 131 | 0.0 | 0.0 | 0.00 | 0.00 | 0.00 | 56 | 1010.7 |
| 20260905053752 | 81 | 131 | 0.0 | 0.0 | 0.00 | 0.00 | 0.00 | 56 | 1010.7 |
| 20260905052806 | 81 | 131 | 0.0 | 0.0 | 0.00 | 0.00 | 0.00 | 54 | 1010.4 |
| 20260905052306 | 81 | 131 | 0.0 | 0.0 | 0.00 | 0.00 | 0.00 | 54 | 1010.4 |
| 20260905051804 | 81 | 131 | 0.0 | 2.0 | 0.00 | 0.00 | 0.00 | 52 | 1010.4 |
| 20260905051305 | 81 | 131 | 0.0 | 2.0 | 0.00 | 0.00 | 0.00 | 51 | 1010.4 |
| 20260905050805 | 81 | 103 | 0.0 | 1.0 | 0.00 | 0.00 | 0.00 | 50 | 1010.3 |
| 20260905050531 | 82 | 103 | 0.0 | 0.0 | 0.00 | 0.00 | 0.00 | 48 | 1010.4 |
| 20260905045805 | 81 | 106 | 0.0 | 1.0 | 0.00 | 0.00 | 0.00 | 48 | 1010.3 |
| 20260905045306 | 81 | 87 | 0.0 | 1.0 | 0.00 | 0.00 | 0.00 | 49 | 1010.2 |
| 20260905044805 | 81 | 357 | 0.0 | 0.0 | 0.00 | 0.00 | 0.00 | 50 | 1010.2 |
| 20260905044522 | 81 | 357 | 0.0 | 0.0 | 0.00 | 0.00 | 0.00 | 51 | 1010.2 |
| 20260905043805 | 81 | 357 | 0.0 | 0.0 | 0.00 | 0.00 | 0.00 | 53 | 1010.2 |
| 20260905043304 | 81 | 357 | 0.0 | 0.0 | 0.00 | 0.00 | 0.00 | 51 | 1010.2 |
| 20260905042804 | 81 | 357 | 0.0 | 0.0 | 0.00 | 0.00 | 0.00 | 51 | 1010.2 |
| 20260905042306 | 82 | 357 | 0.0 | 0.0 | 0.00 | 0.00 | 0.00 | 51 | 1010.1 |
| 20260905041804 | 82 | 357 | 0.0 | 1.0 | 0.00 | 0.00 | 0.00 | 50 | 1010.2 |
| 20260905041303 | 82 | 357 | 0.0 | 1.0 | 0.00 | 0.00 | 0.00 | 49 | 1010.2 |
| 20260905040804 | 82 | 317 | 0.0 | 1.0 | 0.00 | 0.00 | 0.00 | 50 | 1010.2 |
| 20260905040303 | 82 | 353 | 0.0 | 1.0 | 0.00 | 0.00 | 0.00 | 49 | 1010.2 |
| 20260905040028 | 83 | 351 | 0.0 | 0.0 | 0.00 | 0.00 | 0.00 | 47 | 1010.2 |
| 20260905035306 | 83 | 351 | 0.0 | 0.0 | 0.00 | 0.00 | 0.00 | 45 | 1010.2 |
| 20260905034805 | 83 | 354 | 0.0 | 0.0 | 0.00 | 0.00 | 0.00 | 46 | 1010.2 |
| 20260905034303 | 83 | 354 | 0.0 | 0.0 | 0.00 | 0.00 | 0.00 | 44 | 1010.1 |
| 20260905033803 | 83 | 353 | 0.0 | 0.0 | 0.00 | 0.00 | 0.00 | 45 | 1010.0 |
| 20260905033303 | 83 | 353 | 0.0 | 0.0 | 0.00 | 0.00 | 0.00 | 44 | 1009.9 |
| 20260905033021 | 83 | 353 | 0.0 | 0.0 | 0.00 | 0.00 | 0.00 | 45 | 1009.9 |
| 20260905032530 | 83 | 10 | 0.0 | 1.0 | 0.00 | 0.00 | 0.00 | 45 | 1009.8 |
| 20260905031802 | 83 | 10 | 0.0 | 1.0 | 0.00 | 0.00 | 0.00 | 43 | 1009.7 |
| 20260905031302 | 84 | 336 | 0.0 | 0.0 | 0.00 | 0.00 | 0.00 | 45 | 1009.7 |
| 20260905030802 | 84 | 336 | 0.0 | 0.0 | 0.00 | 0.00 | 0.00 | 43 | 1009.7 |
| 20260905030518 | 85 | 336 | 0.0 | 0.0 | 0.00 | 0.00 | 0.00 | 43 | 1009.6 |
| 20260905025801 | 85 | 336 | 0.0 | 0.0 | 0.00 | 0.00 | 0.00 | 41 | 1009.5 |
| 20260905025301 | 85 | 336 | 0.0 | 0.0 | 0.00 | 0.00 | 0.00 | 40 | 1009.5 |
| 20260905024802 | 86 | 336 | 0.0 | 0.0 | 0.00 | 0.00 | 0.00 | 39 | 1009.2 |
| 20260905024301 | 86 | 336 | 0.0 | 0.0 | 0.00 | 0.00 | 0.00 | 39 | 1009.2 |
| 20260905023802 | 86 | 336 | 0.0 | 0.0 | 0.00 | 0.00 | 0.00 | 39 | 1009.1 |
| 20260905023746 | 86 | 336 | 0.0 | 0.0 | 0.00 | 0.00 | 0.00 | 39 | 1009.0 |
| 20260905023023 | 87 | 336 | 0.0 | 0.0 | 0.00 | 0.00 | 0.00 | 37 | 1008.9 |
| 20260905022300 | 87 | 336 | 0.0 | 2.0 | 0.00 | 0.00 | 0.00 | 36 | 1008.9 |
| 20260905021801 | 87 | 324 | 0.0 | 2.0 | 0.00 | 0.00 | 0.00 | 36 | 1008.9 |
| 20260905021300 | 88 | 305 | 0.0 | 1.0 | 0.00 | 0.00 | 0.00 | 35 | 1008.9 |
| 20260905020801 | 88 | 305 | 0.0 | 1.0 | 0.00 | 0.00 | 0.00 | 34 | 1008.9 |
| 20260905020300 | 89 | 305 | 0.0 | 4.0 | 0.00 | 0.00 | 0.00 | 33 | 1008.8 |
| 20260905015801 | 89 | 300 | 0.0 | 4.0 | 0.00 | 0.00 | 0.00 | 33 | 1008.7 |
| 20260905015525 | 89 | 317 | 0.0 | 4.0 | 0.00 | 0.00 | 0.00 | 33 | 1008.7 |
| 20260905014759 | 89 | 266 | 0.0 | 4.0 | 0.00 | 0.00 | 0.00 | 33 | 1008.6 |
| 20260905014300 | 89 | 290 | 0.0 | 5.0 | 0.00 | 0.00 | 0.00 | 33 | 1008.5 |
| 20260905013800 | 89 | 303 | 0.0 | 5.0 | 0.00 | 0.00 | 0.00 | 33 | 1008.6 |
| 20260905013302 | 90 | 292 | 0.0 | 3.0 | 0.00 | 0.00 | 0.00 | 32 | 1008.6 |
| 20260905012800 | 90 | 295 | 0.0 | 3.0 | 0.00 | 0.00 | 0.00 | 32 | 1008.6 |
| 20260905012300 | 90 | 305 | 0.0 | 5.0 | 0.00 | 0.00 | 0.00 | 33 | 1008.6 |
| 20260905012021 | 91 | 309 | 1.0 | 6.0 | 0.00 | 0.00 | 0.00 | 31 | 1008.7 |
| 20260905011259 | 91 | 295 | 2.0 | 7.0 | 0.00 | 0.00 | 0.00 | 31 | 1008.5 |
| 20260905010758 | 91 | 288 | 4.0 | 10.0 | 0.00 | 0.00 | 0.00 | 32 | 1008.5 |
| 20260905010259 | 92 | 302 | 4.0 | 10.0 | 0.00 | 0.00 | 0.00 | 32 | 1008.5 |
| 20260905005759 | 92 | 254 | 2.0 | 7.0 | 0.00 | 0.00 | 0.00 | 32 | 1008.5 |
| 20260905005259 | 92 | 309 | 4.0 | 9.0 | 0.00 | 0.00 | 0.00 | 32 | 1008.5 |
| 20260905004759 | 92 | 283 | 5.0 | 11.0 | 0.00 | 0.00 | 0.00 | 32 | 1008.4 |
| 20260905004522 | 92 | 298 | 4.0 | 11.0 | 0.00 | 0.00 | 0.00 | 32 | 1008.5 |
| 20260905003758 | 92 | 271 | 4.0 | 11.0 | 0.00 | 0.00 | 0.00 | 32 | 1008.5 |
| 20260905003259 | 92 | 276 | 4.0 | 11.0 | 0.00 | 0.00 | 0.00 | 32 | 1008.4 |
| 20260905002758 | 92 | 286 | 2.0 | 11.0 | 0.00 | 0.00 | 0.00 | 32 | 1008.3 |
| 20260905002258 | 92 | 282 | 2.0 | 14.0 | 0.00 | 0.00 | 0.00 | 32 | 1008.2 |
| 20260905002017 | 92 | 254 | 4.0 | 14.0 | 0.00 | 0.00 | 0.00 | 32 | 1008.2 |
| 20260905001258 | 92 | 324 | 7.0 | 13.0 | 0.00 | 0.00 | 0.00 | 32 | 1008.1 |
| 20260905000758 | 92 | 268 | 5.0 | 11.0 | 0.00 | 0.00 | 0.00 | 33 | 1008.1 |
| 20260905000257 | 93 | 286 | 5.0 | 10.0 | 0.00 | 0.00 | 0.00 | 34 | 1008.1 |
| 20260904235758 | 93 | 247 | 4.0 | 10.0 | 0.00 | 0.00 | 0.00 | 33 | 1008.1 |
| 20260904235521 | 93 | 272 | 3.0 | 14.0 | 0.00 | 0.00 | 0.00 | 31 | 1008.1 |
| 20260904234753 | 93 | 334 | 7.0 | 14.0 | 0.00 | 0.00 | 0.00 | 30 | 1008.1 |
| 20260904234518 | 93 | 285 | 3.0 | 12.0 | 0.00 | 0.00 | 0.00 | 31 | 1008.1 |
| 20260904233757 | 93 | 275 | 4.0 | 15.0 | 0.00 | 0.00 | 0.00 | 30 | 1008.1 |
| 20260904233257 | 93 | 285 | 8.0 | 15.0 | 0.00 | 0.00 | 0.00 | 29 | 1008.2 |